www.pogodaiklimat.ru

Погода и климат >> Архив погоды >> Турция >> Finike


ПОГОДА в Finike

  • Прогноз погоды в Finike
  • Монитор погоды в Finike
  • Климат города

АРХИВ ПОГОДЫ в Finike

Время (UTC), дата Ветер
(напр.,м/с)
 
Видим.   Явления Облачность Т
(С)
Тd
(С)
f
(%)
Тe
(С)
Тes
(С)
Комфортность P
(гПа)
Po
(гПа)
Тmin
(С)
Tmax
(С)
R
(мм)
R24
(мм)
S
(см)
06 9.12 С 2
{4}
20 км 8/4 1050 м
[Cu med, cong Ac und]
+12.1 +5.5 64 +12 +12 1024.3 1024.1 +9.6
08 9.12 С 1 20 км 6/4 1000 м
[Cu med, cong Ac und]
+15.6 +6.6 55 +16 +18 1024.3 1024.1
07 9.12 С 1 20 км 5/3 1000 м
[Cu med, cong Ac trans]
+14.5 +6.6 59 +15 +16 1024.3 1024.1
09 9.12 С 1
{3}
15 км слабый ливневой дождь 9/5 960 м
[Cu med, cong Ac As]
+14.9 +7.5 61 +16 +18 1024.1 1023.9
10 9.12 С 1 20 км в посл. час ливневой дождь 9/5 1000 м
[Cu med, cong Ac As]
+14.9 +7.5 61 +16 +17 1023.5 1023.3
11 9.12 С 2 20 км 9/5 1000 м
[Cu med, cong Ac As]
+14.6 +10.0 74 +15 +16 1023.2 1023.0
12 9.12 С 1
{3}
20 км {ливн. осадки} 9/5 1050 м
[Cu med, cong Ac As]
+14.7 +10.9 78 +15 +16 1022.8 1022.6 0.0
14 9.12 С 1 20 км 8/5 1000 м
[Cu med, cong Ac und]
+14.6 +11.0 79 +15 +15 1022.4 1022.2
13 9.12 С 1 20 км 8/4 1000 м
[Cu med, cong Ac und]
+15.1 +11.3 78 +16 +16 1022.4 1022.2
15 9.12 С 1
{3}
20 км 8/4 1050 м
[Cu med, cong Ac und]
+14.4 +10.8 79 +15 +15 1022.1 1021.9
16 9.12 С 1 20 км 8/5 1000 м
[Cu med, cong Ac und]
+13.5 +10.3 81 +14 +14 1022.4 1022.2
17 9.12 С 1 20 км 8/4 1000 м
[Cu med, cong Ac und]
+13.2 +9.6 79 +14 +14 1022.5 1022.3
18 9.12 С 1
{3}
20 км 6/4 1050 м
[Cu med, cong Ac und]
+12.2 +9.0 81 +13 +13 1022.6 1022.4 +16.4 0.0
21 9.12 С 1
{3}
20 км 6/4 1050 м
[Cu med, cong Ac und]
+12.2 +9.0 81 +13 +13 1022.6 1022.4 +16.4 0.0
06 10.12 СВ 1 10 км слабый ливневой дождь 9/5 930 м
[Cu med, cong Ac As]
+12.0 +10.2 89 +13 +13 1021.6 1021.4 +11.7 2
08 10.12 С 1 20 км 9/5 600 м
[Cu med, cong Ac As]
+13.5 +11.5 88 +14 +15 1021.7 1021.5
07 10.12 С 1 20 км в посл. час ливневой дождь 9/5 600 м
[Cu med, cong Ac As]
+12.2 +10.4 89 +12 +13 1021.7 1021.5
09 10.12 С 1
{2}
8000 м слабый ливневой дождь 9/5 900 м
[Cu med, cong Ac As]
+13.6 +11.6 88 +15 +16 1021.7 1021.5
10 10.12 С 1 10 км слабый ливневой дождь 9/5 600 м
[Cu med, cong Ac As]
+14.5 +11.8 84 +16 +17 1021.1 1020.9
11 10.12 С 1 10 км слабый ливневой дождь 9/5 600 м
[Cu med, cong Ac As]
+14.1 +12.2 88 +14 +16 1020.7 1020.5
12 10.12 СВ 1
{2}
20 км в посл. час ливневой дождь 8/5 960 м
[Cu med, cong Ac und]
+14.4 +12.0 85 +15 +17 1020.1 1019.9 2
14 10.12 С 1 20 км 8/5 600 м
[Cu med, cong Ac und]
+14.9 +12.2 84 +16 +16 1020.4 1020.2
13 10.12 Ю 1 20 км 8/5 600 м
[Cu med, cong Ac und]
+14.7 +12.2 85 +16 +17 1019.9 1019.7
15 10.12 С 1
{2}
20 км 8/5 1000 м
[Cu med, cong Ac und]
+13.9 +12.1 89 +15 +15 1020.1 1019.9
16 10.12 С 1 20 км 6/4 1000 м
[Cu med, cong Ac und]
+13.2 +11.4 89 +13 +13 1020.6 1020.4
17 10.12 СЗ 1 20 км 4/4 1000 м
[Cu med, cong]
+12.1 +10.3 89 +13 +13 1021.6 1021.4
18 10.12 СЗ 1
{2}
20 км 3/3 1050 м
[Cu med, cong]
+11.3 +9.2 87 +12 +12 1021.8 1021.6 +15.1 2
21 10.12 СЗ 1
{2}
20 км 3/3 1050 м
[Cu med, cong]
+11.3 +9.2 87 +12 +12 1021.8 1021.6 +15.1 2
06 11.12 С 1
{3}
20 км {ливн. осадки} ясно +12.1 +6.8 70 +12 +13 1025.1 1024.9 +10.3 0.3
08 11.12 С 1 20 км 3/0
[Ci fib]
+16.6 +8.3 58 +17 +22 1026.2 1026.0
07 11.12 С 2 20 км ясно +14.0 +7.3 64 +14 +16 1025.8 1025.6
09 11.12 ЮВ 1
{3}
20 км 4/1 1080 м
[Cu hum Ci fib]
+18.9 +7.9 49 +21 +26 комфорт 1026.2 1026.0
10 11.12 ЮВ 1 20 км 6/3 1000 м
[Cu med, cong Ci fib]
+18.7 +9.8 56 +21 +25 комфорт 1025.6 1025.4
11 11.12 Ю 1 20 км 3/3 1000 м
[Cu med, cong]
+18.9 +11.5 62 +21 +25 комфорт 1024.9 1024.7
12 11.12 Ю 1
{3}
20 км 6/3 1080 м
[Cu med, cong Ac trans]
+17.9 +11.7 67 +19 +21 1024.9 1024.7
14 11.12 С 1 20 км 5/1 1000 м
[Cu hum Ci]
+17.7 +12.2 70 +19 +20 1024.6 1024.4
13 11.12 ЮЗ 2 20 км 5/1 1000 м
[Cu hum Ci]
+18.3 +11.4 64 +19 +21 1024.8 1024.6
15 11.12 ЮВ 1
{4}
20 км 6/1 1080 м
[Cu hum Ac trans]
+16.2 +12.0 76 +18 +18 1024.6 1024.4
16 11.12 штиль 0 20 км 4/0
[Ac trans]
+15.1 +11.7 80 +15 +15 1025.4 1025.2
17 11.12 СЗ 1 20 км 4/0
[Ci fib]
+14.5 +10.9 79 +16 +16 1025.3 1025.1
18 11.12 С 1
{4}
20 км 4/0
[Ci fib]
+13.8 +10.6 81 +15 +15 1024.6 1024.4 +19.5
06 12.12 С 1
{3}
20 км 6/0
[Ac trans]
+12.3 +7.2 71 +12 +13 1023.3 1023.1 +11.4
08 12.12 С 1 20 км 5/0
[Ac trans]
+16.6 +8.3 58 +17 +20 1023.5 1023.3
07 12.12 С 1 20 км 4/0
[Ac trans]
+14.3 +7.1 62 +15 +16 1023.6 1023.4
09 12.12 С 2
{3}
20 км 5/0
[Ac trans]
+18.2 +8.2 52 +19 +23 1023.0 1022.8
10 12.12 С 1 20 км 5/0
[Ac trans]
+20.2 +7.5 44 +23 +28 комфорт 1022.1 1021.9
11 12.12 ЮВ 1 20 км 4/0
[Ac trans]
+20.3 +10.7 54 +23 +27 комфорт 1021.3 1021.1
12 12.12 Ю 2
{3}
20 км 3/0
[Ac trans]
+21.1 +6.5 39 +22 +25 комфорт 1020.6 1020.4
14 12.12 З 1 20 км 3/0
[Ac trans]
+18.1 +7.5 50 +20 +20 1020.2 1020.0
13 12.12 Ю 1 20 км 3/0
[Ac trans]
+20.7 +5.7 38 +23 +24 комфорт 1020.3 1020.1
15 12.12 СЗ 1
{3}
20 км ясно +15.0 +8.0 63 +16 +16 1020.2 1020.0
16 12.12 штиль 0 20 км ясно +13.5 +8.6 72 +13 +13 1020.3 1020.1
17 12.12 штиль 0 20 км ясно +12.3 +7.8 74 +12 +12 1020.4 1020.2
18 12.12 С 1
{3}
20 км ясно +11.6 +6.9 73 +12 +12 1020.3 1020.1 +21.8
06 13.12 С 1
{2}
20 км ясно +10.8 +3.6 61 +11 +11 1018.2 1018.0 +8.5
08 13.12 С 1 20 км ясно +17.8 +6.9 49 +19 +24 1018.5 1018.3
07 13.12 С 1 20 км ясно +15.1 +4.7 50 +16 +18 1018.3 1018.1
09 13.12 В 1
{2}
20 км ясно +19.0 +5.7 42 +21 +27 комфорт 1018.4 1018.2
10 13.12 В 1 20 км ясно +19.5 +7.8 47 +21 +28 комфорт 1017.7 1017.5
11 13.12 СЗ 1 20 км ясно +20.3 +6.9 42 +22 +28 комфорт 1016.9 1016.7
12 13.12 Ю 1
{2}
20 км ясно +21.7 +7.8 41 +23 +27 комфорт 1016.5 1016.3
14 13.12 ЮЗ 1 20 км ясно +16.7 +10.8 68 +18 +19 1016.3 1016.1
13 13.12 ЮВ 1 20 км ясно +20.2 +10.3 53 +23 +26 комфорт 1016.4 1016.2
15 13.12 С 1
{2}
20 км ясно +15.1 +9.5 69 +16 +16 1016.6 1016.4
16 13.12 СВ 1 20 км ясно +13.6 +8.0 69 +15 +15 1016.3 1016.1
17 13.12 СВ 1 20 км ясно +13.2 +7.2 67 +14 +14 1016.8 1016.6
18 13.12 С 1
{3}
20 км ясно +13.3 +6.2 62 +14 +14 1016.5 1016.3 +21.9
06 14.12 С 1
{2}
20 км 8/0
[Ci fib]
+12.1 +3.3 55 +12 +13 1016.6 1016.4 +9.3
08 14.12 СВ 1 20 км 6/1 1000 м
[Cu hum Ci fib]
+16.6 +5.5 48 +18 +22 1017.0 1016.8
07 14.12 С 2 20 км 8/1 1000 м
[Cu hum Ci fib]
+14.8 +3.8 48 +15 +16 1017.1 1016.9
09 14.12 С 1
{3}
20 км 6/1 1050 м
[Cu hum Ci fib]
+19.1 +5.4 41 +21 +26 комфорт 1016.4 1016.2
10 14.12 ЮВ 1 20 км 5/1 1000 м
[Cu hum Ci fib]
+20.3 +7.6 44 +22 +28 комфорт 1015.7 1015.5
11 14.12 ЮЗ 2 20 км 5/1 1000 м
[Cu hum Ci fib]
+19.8 +10.8 56 +22 +26 комфорт 1015.3 1015.1
12 14.12 Ю 1
{4}
20 км 1/1 1080 м
[Cu hum]
+20.3 +11.8 58 +23 +27 комфорт 1015.1 1014.9
14 14.12 ЮЗ 1 20 км 3/3 1000 м
[Cu med, cong]
+17.9 +12.2 69 +20 +20 1015.1 1014.9
13 14.12 Ю 2 20 км 4/1 1000 м
[Cu hum Ac trans]
+19.0 +12.5 66 +21 +22 комфорт 1015.1 1014.9
15 14.12 С 1
{3}
20 км 3/3 1050 м
[Cu hum]
+15.4 +11.9 80 +17 +17 1014.9 1014.7
16 14.12 С 1 20 км 1/1 1000 м
[Cu hum]
+14.0 +11.3 84 +15 +15 1015.3 1015.1
17 14.12 С 1 20 км 1/1 1000 м
[Cu hum]
+13.2 +10.5 84 +14 +14 1015.5 1015.3
18 14.12 С 1
{3}
20 км ясно +13.7 +9.3 75 +14 +14 1015.5 1015.3 +20.7
06 15.12 С 2
{4}
20 км ясно +13.0 +5.7 61 +13 +13 1018.4 1018.2 +10.8
08 15.12 С 2 20 км 1/1 1000 м
[Cu med, cong]
+16.8 +6.3 50 +17 +20 1019.4 1019.2
07 15.12 С 2 20 км ясно +15.4 +5.0 50 +16 +18 1019.1 1018.9
09 15.12 С 1
{4}
20 км 3/3 1080 м
[Cu med, cong]
+18.0 +7.4 50 +19 +23 1019.3 1019.1
10 15.12 ЮВ 1 20 км 3/3 1000 м
[Cu med, cong]
+19.8 +10.8 56 +23 +28 комфорт 1018.6 1018.4
11 15.12 ЮВ 2 20 км 3/3 1000 м
[Cu med, cong]
+19.8 +11.6 59 +22 +26 комфорт 1018.2 1018.0
12 15.12 Ю 2
{4}
20 км 3/3 1080 м
[Cu med, cong]
+18.9 +11.5 62 +20 +23 1018.1 1017.9
14 15.12 Ю 1 20 км 3/3 1000 м
[Cu hum]
+18.2 +11.6 65 +20 +20 1018.4 1018.2
13 15.12 Ю 2 20 км 3/3 1000 м
[Cu med, cong]
+18.4 +11.3 63 +20 +21 1018.0 1017.8
15 15.12 штиль 0
{3}
20 км 5/3 1080 м
[Cu hum Ac trans]
+16.5 +11.9 74 +16 +16 1018.5 1018.3
16 15.12 штиль 0 20 км 6/3 1000 м
[Cu med, cong Ac trans]
+16.3 +11.1 71 +16 +16 1018.7 1018.5
17 15.12 штиль 0 20 км 6/3 1000 м
[Cu med, cong Ac trans]
+15.7 +11.5 76 +16 +16 1019.6 1019.4
18 15.12 С 1
{3}
20 км 6/3 1080 м
[Cu med, cong Ac trans]
+14.2 +11.1 82 +15 +15 1019.7 1019.5 +20.4

 

Местоположение метеостанции Finike (Турция): широта 36.30 долгота 30.15 высота над уровнем моря 2 м.

В архиве по умолчанию представлена погода в Finike за последнюю неделю. Архивные данные за месяц целиком и за предыдущие месяцы, начиная с января 2011 года, Вы можете получить, выбрав интересующий диапазон дат из раскрывающегося списка и нажав кнопку "Ввод!".

Внимание! Время в таблицах - всемирное. Для получения местного времени необходимо прибавить поправку, которая в Finike равна 2 ч.

Смотрите также архив погоды в соседних городах и на ближайших метеорологических станциях:

Погода в Kas (Турция) (46 км)
Погода в Antalya (Турция) (82 км)
Погода в Fethiye (Турция) (99 км)
Погода в Antalya Bolge (Турция) (122 км)
Погода в Dalaman (Турция) (130 км)
Погода в Burdur (Турция) (153 км)
Погода в Isparta (Турция) (165 км)
Погода в Alanya (Турция) (168 км)
Погода в Suleyman Demirel (Турция) (174 км)
Погода в Marmaris (Турция) (179 км)

Пояснения к столбцам:

Ветер - указаны скорость ветра в м/с - средняя за 10 мин, порывы в срок и между сроками (в фигурных скобках) и направление, откуда дует ветер: С - северный, СВ - северо-восточный, В - восточный, ЮВ - юго-восточный, Ю - южный, ЮЗ - юго-западный, З - западный, СЗ - северо-западный.
Видимость - горизонтальная дальность видимости в метрах или километрах. При видимости от 1 до 10 км при отсутствии осадков обычно наблюдается дымка, при ухудшении видимости до 1 км и менее - туман. В сухую погоду видимость может ухудшаться дымом, пылью или мглою.
Явления - указаны атмосферные явления, наблюдавшиеся в срок или в последний час перед сроком; фигурными скобками обозначены явления, наблюдавшиеся между сроками (за 1-3 часа до срока); квадратными скобками обозначены град или гололедные отложения с указанием их диаметра в мм.
Облачность - указаны через наклонную черту общая и нижняя облачность в баллах и высота нижней границы облаков в метрах; квадратными скобками обозначены формы облаков: Ci - перистые, Cs - перисто-слоистые, Cc - перисто-кучевые, Ac - высококучевые, As - высокослоистые, Sc - слоисто-кучевые, Ns - слоисто-дождевые, Cu - кучевые, Cb - кучево-дождевые. Подробнее классификацию облаков см. в Атласе облаков (PDF).
T - Температура воздуха - температура, измеренная на высоте 2 м над землей.
Td - Температура точки росы - температура, при понижении до которой содержащийся в воздухе водяной пар достигнет насыщения.
f - Относительная влажность воздуха - влажноcть воздуха, измеренная на высоте 2 м над землей.
Te - Эффективная температура - температура, которую ощущает одетый по сезону человек в тени. Характеристика душности погоды. При расчете учитывается влияние влажности воздуха и скорости ветра на теплоощущения человека.
Tes - Эффективная температура на солнце - температура, которую ощущает человек, с поправкой на солнечный нагрев. Характеристика знойности погоды. Зависит от высоты солнца над горизонтом, облачности и скорости ветра. Ночью, в пасмурную погоду, а также при ветре 12 м/с и более поправка равна нулю.
P - Атмосферное давление - приведенное к уровню моря атмосферное давление.
Po - Атмосферное давление - измеренное на уровне метеостанции атмосферное давление.
Tmin - Минимальная температура - минимум температуры воздуха на высоте 2 м над землей.
Tmax - Максимальная температура - максимум температуры воздуха на высоте 2 м над землей.
R - Количество осадков - Количество выпавших осадков за период времени, мм. При наведении курсора мыши на число - период времени, за который выпало указанное количество осадков.
R24 - Количество осадков - Количество выпавших осадков за 24 часа, мм.
S - Снежный покров - Высота снежного покрова, см. При наведении курсора мыши на число - состояние снежного покрова и степень покрытия местности в баллах.